Погода в Майе

Россия / Республика Саха (Якутия)     61°44′15″N   130°17′22″E
темп.,
°C
ветер,
м/с
пор.,
м/с
влажн.,
%
обл.,
%
осадки,
мм/ч
давл.,
гПа
погр.,
м
27 февраля, сб
сб2700:00−31в239826 0.0 103223
03:00−31в229732 0.0 103119
06:00−32в239752 0.0 103053
09:00−30вюв259668 0.0 1029176
12:00−24в249369 0.0 1028319
15:00−22в379284 0.0 1023405
18:00−24всв3794100 0.0 1022206
21:00−26всв3696100 0.0 1020162
28 февраля, вс
вс2800:00−27ссв2497100 0.0 101899
03:00−28с2296100 0.0 101662
06:00−29с2596100 0.0 1016146
09:00−29зсз2496100 0.0 1017200
12:00−25зсз3691100 0.0 1019440
15:00−23зсз4792100 0.1 1020733
18:00−24з4797100 0.4 1023748
21:00−26зсз3897100 0.7 1024669
1 марта, пн
пн100:00−26з3797100 0.2 1025581
03:00−27з3897100 0.3 1025566
06:00−28з3796100 0.1 1026549
09:00−27з3694100 0.1 1026683
12:00−26з3589100 0.1 1026962
15:00−25зсз3687100 0.2 10261080
18:00−27зсз2397100 0.1 102795
21:00−29з2398100 0.1 102762
2 марта, вт
вт200:00−31з2299100 0.0 102719
03:00−33з1299100 0.0 102719
06:00−34зюз129999 0.0 102719
09:00−32зюз139898 0.0 102793
12:00−28з238999 0.0 1026519
15:00−27з2389100 0.0 1026645
18:00−29з0196100 0.0 102619
21:00−30з0097100 0.0 102619
3 марта, ср
ср300:00−31зюз1197100 0.0 102619
03:00−31зсз1197100 0.0 102519
06:00−31зсз1198100 0.1 102519
09:00−30зсз1197100 0.1 1024114
12:00−27сз1290100 0.1 1022466
15:00−27сз2390100 0.1 1020611
18:00−29сз1297100 0.1 101921
21:00−30зсз2399100 0.1 101981